EN

Hourly Weather Owieczkowo

Today, 2 March, Tuesday

Time Temperature Precipitation Wind Pressure Humidity
00:00 0°C° 0 mm 4 mps 765 mmHg 93%
01:00 0°C° 0 mm 3 mps 765 mmHg 95%
02:00 0°C° 0 mm 3 mps 765 mmHg 95%
03:00 0°C° 0 mm 3 mps 765 mmHg 95%
04:00 -1°C° 0 mm 4 mps 764 mmHg 95%
05:00 -1°C° 0 mm 4 mps 764 mmHg 95%
06:00 -1°C° 0 mm 4 mps 764 mmHg 94%
07:00 -1°C° 0 mm 4 mps 765 mmHg 95%
08:00 0°C° 0 mm 4 mps 765 mmHg 88%
09:00 +3°C° 0 mm 4 mps 765 mmHg 82%
10:00 +4°C° 0 mm 4 mps 765 mmHg 75%
11:00 +5°C° 0 mm 4 mps 765 mmHg 70%
12:00 +6°C° 0 mm 4 mps 765 mmHg 65%
13:00 +8°C° 0 mm 4 mps 765 mmHg 60%
14:00 +8°C° 0 mm 4 mps 765 mmHg 61%
15:00 +9°C° 0 mm 3 mps 764 mmHg 62%
16:00 +9°C° 0 mm 3 mps 764 mmHg 63%
17:00 +7°C° 0 mm 3 mps 764 mmHg 69%
18:00 +6°C° 0 mm 2 mps 764 mmHg 75%
19:00 +4°C° 0 mm 2 mps 765 mmHg 81%
20:00 +4°C° 0 mm 2 mps 765 mmHg 84%
21:00 +4°C° 0 mm 1 mps 765 mmHg 87%
22:00 +3°C° 0 mm 1 mps 765 mmHg 90%
23:00 +3°C° 0 mm 1 mps 765 mmHg 90%

Tomorrow, 3 March, Wednesday

Time Temperature Precipitation Wind Pressure Humidity
00:00 +3°C° 0 mm 1 mps 765 mmHg 90%
01:00 +1°C° 0 mm 0 mps 765 mmHg 90%
02:00 +1°C° 0 mm 0 mps 765 mmHg 90%
03:00 +2°C° 0 mm 1 mps 764 mmHg 90%
04:00 +2°C° 0 mm 1 mps 764 mmHg 90%
05:00 +2°C° 0 mm 1 mps 764 mmHg 91%
06:00 +2°C° 0 mm 1 mps 764 mmHg 91%
07:00 +2°C° 0 mm 1 mps 764 mmHg 92%
08:00 +3°C° 0 mm 1 mps 763 mmHg 84%
09:00 +4°C° 0 mm 2 mps 763 mmHg 76%
10:00 +5°C° 0 mm 2 mps 762 mmHg 67%
11:00 +6°C° 0 mm 2 mps 762 mmHg 63%
12:00 +7°C° 0 mm 2 mps 762 mmHg 58%
13:00 +9°C° 0 mm 3 mps 761 mmHg 53%
14:00 +9°C° 0 mm 3 mps 760 mmHg 56%
15:00 +9°C° 0 mm 3 mps 759 mmHg 59%
16:00 +9°C° 0 mm 2 mps 759 mmHg 61%
17:00 +8°C° 0 mm 3 mps 758 mmHg 68%
18:00 +5°C° 0 mm 3 mps 758 mmHg 74%
19:00 +4°C° 0 mm 3 mps 757 mmHg 81%
20:00 +4°C° 0 mm 3 mps 756 mmHg 83%
21:00 +4°C° 0 mm 4 mps 756 mmHg 84%
22:00 +3°C° 0 mm 4 mps 755 mmHg 86%
23:00 +3°C° 0 mm 4 mps 754 mmHg 88%

Day after tomorrow, 4 March, Thursday

Time Temperature Precipitation Wind Pressure Humidity
00:00 +3°C° 0 mm 4 mps 754 mmHg 89%
01:00 +1°C° 0 mm 4 mps 753 mmHg 91%
02:00 +3°C° 0 mm 4 mps 753 mmHg 92%
03:00 +3°C° 0 mm 4 mps 752 mmHg 92%
04:00 +3°C° 0 mm 4 mps 751 mmHg 93%
05:00 +3°C° 0 mm 4 mps 751 mmHg 94%
06:00 +1°C° 0 mm 4 mps 751 mmHg 94%
07:00 +1°C° 0 mm 4 mps 750 mmHg 95%
08:00 +1°C° 0 mm 4 mps 750 mmHg 91%
09:00 +2°C° 0 mm 5 mps 750 mmHg 87%
10:00 +2°C° 0 mm 5 mps 750 mmHg 83%
11:00 +2°C° 0 mm 5 mps 750 mmHg 83%
12:00 +1°C° 0 mm 5 mps 750 mmHg 82%
13:00 +1°C° 0 mm 5 mps 750 mmHg 81%
14:00 +1°C° 0 mm 5 mps 750 mmHg 83%
15:00 +1°C° 0 mm 5 mps 750 mmHg 85%
16:00 +1°C° 0 mm 4 mps 750 mmHg 86%
17:00 0°C° 0.1 mm 4 mps 750 mmHg 85%
18:00 -1°C° 0.1 mm 4 mps 751 mmHg 83%
19:00 -2°C° 0.1 mm 5 mps 751 mmHg 82%
20:00 -2°C° 0 mm 4 mps 751 mmHg 80%
21:00 -2°C° 0 mm 4 mps 752 mmHg 78%
22:00 -2°C° 0 mm 3 mps 752 mmHg 76%
23:00 -2°C° 0 mm 3 mps 752 mmHg 78%

5 March, Friday

Time Temperature Precipitation Wind Pressure Humidity
00:00 -2°C° 0 mm 3 mps 752 mmHg 81%
01:00 -4°C° 0 mm 3 mps 753 mmHg 83%
02:00 -4°C° 0 mm 3 mps 753 mmHg 83%
03:00 -4°C° 0 mm 3 mps 753 mmHg 83%
04:00 -4°C° 0 mm 3 mps 753 mmHg 84%
05:00 -4°C° 0 mm 3 mps 753 mmHg 81%
06:00 -4°C° 0 mm 3 mps 754 mmHg 79%
07:00 -4°C° 0 mm 3 mps 754 mmHg 77%
08:00 -2°C° 0 mm 3 mps 754 mmHg 69%
09:00 0°C° 0 mm 3 mps 754 mmHg 61%
10:00 +1°C° 0 mm 3 mps 755 mmHg 53%
11:00 +1°C° 0.1 mm 3 mps 755 mmHg 50%
12:00 +2°C° 0.1 mm 3 mps 755 mmHg 48%
13:00 +2°C° 0.1 mm 3 mps 755 mmHg 45%
14:00 +2°C° 0.2 mm 3 mps 755 mmHg 46%
15:00 +2°C° 0.2 mm 3 mps 755 mmHg 48%
16:00 +2°C° 0.2 mm 3 mps 755 mmHg 49%
17:00 +1°C° 0.1 mm 3 mps 756 mmHg 56%
18:00 -1°C° 0.1 mm 3 mps 757 mmHg 63%
19:00 -2°C° 0.1 mm 3 mps 757 mmHg 70%
20:00 -2°C° 0 mm 3 mps 758 mmHg 71%
21:00 -3°C° 0 mm 4 mps 758 mmHg 72%
22:00 -4°C° 0 mm 4 mps 759 mmHg 74%
23:00 -4°C° 0 mm 4 mps 759 mmHg 72%

6 March, Saturday

Time Temperature Precipitation Wind Pressure Humidity
00:00 -4°C° 0 mm 4 mps 759 mmHg 70%
01:00 -4°C° 0 mm 4 mps 760 mmHg 69%
02:00 -4°C° 0 mm 4 mps 760 mmHg 67%
03:00 -4°C° 0 mm 4 mps 760 mmHg 65%
04:00 -4°C° 0 mm 4 mps 760 mmHg 63%
05:00 -4°C° 0 mm 4 mps 761 mmHg 63%
06:00 -4°C° 0 mm 4 mps 761 mmHg 64%
07:00 -4°C° 0 mm 3 mps 761 mmHg 64%
08:00 -2°C° 0 mm 3 mps 762 mmHg 58%
09:00 -1°C° 0 mm 3 mps 762 mmHg 51%
10:00 0°C° 0 mm 3 mps 762 mmHg 45%
11:00 0°C° 0 mm 4 mps 762 mmHg 44%
12:00 0°C° 0 mm 4 mps 762 mmHg 43%
13:00 +1°C° 0 mm 4 mps 761 mmHg 43%
14:00 +1°C° 0 mm 5 mps 761 mmHg 44%
15:00 +1°C° 0 mm 5 mps 761 mmHg 45%
16:00 +1°C° 0 mm 5 mps 760 mmHg 46%
17:00 0°C° 0 mm 5 mps 760 mmHg 50%
18:00 -1°C° 0 mm 5 mps 759 mmHg 54%
19:00 -2°C° 0 mm 5 mps 759 mmHg 59%
20:00 -3°C° 0 mm 6 mps 758 mmHg 69%
21:00 -3°C° 0 mm 6 mps 758 mmHg 79%
22:00 -3°C° 0 mm 7 mps 758 mmHg 89%
23:00 -3°C° 0.1 mm 7 mps 757 mmHg 91%

7 March, Sunday

Time Temperature Precipitation Wind Pressure Humidity
00:00 -2°C° 0.1 mm 7 mps 757 mmHg 92%
01:00 -2°C° 0.1 mm 7 mps 757 mmHg 93%
02:00 -2°C° 0 mm 7 mps 756 mmHg 91%
03:00 -2°C° 0 mm 8 mps 755 mmHg 88%
04:00 -2°C° 0 mm 8 mps 755 mmHg 85%
05:00 -2°C° 0.1 mm 8 mps 754 mmHg 86%
06:00 -2°C° 0.1 mm 8 mps 754 mmHg 86%
07:00 -2°C° 0.1 mm 8 mps 754 mmHg 86%
08:00 -2°C° 0.1 mm 8 mps 753 mmHg 84%
09:00 -3°C° 0.1 mm 9 mps 753 mmHg 83%
10:00 -1°C° 0.1 mm 9 mps 753 mmHg 81%
11:00 -1°C° 0 mm 9 mps 752 mmHg 84%
12:00 -1°C° 0 mm 9 mps 752 mmHg 86%
13:00 -1°C° 0 mm 9 mps 751 mmHg 88%
14:00 -1°C° 0.1 mm 8 mps 751 mmHg 88%
15:00 -1°C° 0.1 mm 8 mps 750 mmHg 89%
16:00 -1°C° 0.1 mm 8 mps 750 mmHg 89%
17:00 -2°C° 0.4 mm 8 mps 749 mmHg 91%
18:00 -2°C° 0.4 mm 8 mps 749 mmHg 94%
19:00 -3°C° 0.4 mm 9 mps 749 mmHg 96%
20:00 -3°C° 0.4 mm 7 mps 749 mmHg 92%
21:00 -4°C° 0.4 mm 6 mps 750 mmHg 88%
22:00 -4°C° 0.4 mm 4 mps 750 mmHg 84%
23:00 -5°C° 0 mm 4 mps 751 mmHg 85%
Show more

We Need Your Consent

Meteoprog and our Service Providers may store and access personal data such as cookies, device identifiers or other similar technologies on your device and process such data to personalise content and ads, as well as provide social media features and to analyse the traffic.

  • Store and/or access information on your device

    Cookies, device identifiers or other information can be stored or accessed on your device for the purposes indicated above.

  • Personalised ads and content, ad and content measurement, audience insights, and products development

    Ads and content can be personalised based on a profile. More data can be added to better personalise ads and content. Ad and content performance can be measured. Insights about the audience who saw the ads and content can be derived. Such data can be used to develop or improve user’s experience, systems and software.

By clicking ‘I Agree’ you will allow the use of indicated cookies, device identifiers, web beacons or other similar technologies. Your settings can be changed in the browser on your device.

For certain purposes, legitimate interests may be relied on, rather than consent. You can read more about this in our Privacy and Cookie Policy.